Home > Weather > Cayenne > Past weeks

Flag for French Guiana Weather for the Past 2 Weeks in Cayenne, French Guiana

Now
84 °F

Mostly cloudy.


Feels Like: 92 °F
Forecast: 77 / 82 °F
Wind: 20 mph from Northeast

Location: Cayenne / Rochambeau

Current Time: Feb 7, 2016 at 3:24:01 PM

Latest Report: Feb 7, 2016 at 3:00 PM


Visibility: N/A

Pressure: 29.86 "Hg

Humidity: 74%

Dew point: 75 °F

Location of CayenneLocation

Historic Weather in Cayenne — Graph

°F

Cayenne Temperature Yesterday

Maximum temperature yesterday: 84 °F (at 12:00 PM)
Minimum temperature yesterday: 77 °F (at 8:00 PM)
Average temperature yesterday: 81 °F

High & Low Weather Summary for the Past Weeks

 TemperatureHumidityPressure
High86 °F (Jan 23, 2:00 PM)100% (Jan 24, 3:30 AM)30.01 "Hg (Jan 24, 3:30 AM)
Low70 °F (Jan 30, 6:00 AM)62% (Jan 23, 2:00 PM)29.80 "Hg (Feb 3, 3:30 PM)
Average80 °F83%29.92 "Hg
* Reported Jan 23 2:00 PM — Feb 7 2:00 PM, Cayenne, Weather by CustomWeather, © 2016

Note: Actual official high and low records may vary slightly from our data, if they occured in-between our weather recording intervals... More about our weather records

Advertising

Cayenne Weather History for the Previous 24 Hours

 ConditionsComfort  
Time TempWeatherWind HumidityBarometerVisibility
2:00 PM
Sun, Feb 7
84 °FPartly sunny.17 mph74%29.89 "HgN/A
1:30 PM84 °FBroken clouds.17 mph74%29.89 "HgN/A
1:00 PM84 °FPartly sunny.18 mph74%29.92 "HgN/A
12:30 PM82 °FMostly cloudy.16 mph79%29.92 "HgN/A
12:00 PM84 °FPartly sunny.18 mph74%29.92 "HgN/A
11:30 AM82 °FLight rain. Broken clouds.14 mph79%29.95 "HgN/A
11:00 AM82 °FMostly cloudy.10 mph84%29.95 "HgN/A
10:30 AM81 °FOvercast.9 mph89%29.95 "HgN/A
10:00 AM81 °FPartly sunny.9 mph89%29.95 "HgN/A
9:30 AM79 °FHeavy rain. Fog.5 mph94%29.95 "Hg2 mi
9:00 AM79 °FMostly cloudy.2 mph89%29.95 "HgN/A
8:30 AM77 °FBroken clouds.5 mph94%29.95 "HgN/A
8:00 AM75 °FLight rain. Fog.12 mph100%29.92 "Hg3 mi
7:30 AM77 °FRain. Fog.9 mph94%29.92 "Hg1 mi
7:00 AM79 °FLight rain. Fog.8 mph89%29.89 "Hg2 mi
6:30 AM79 °FPassing clouds.9 mph89%29.89 "HgN/A
6:00 AM79 °FPassing clouds.7 mph89%29.89 "HgN/A
5:30 AM79 °FMostly cloudy.6 mph84%29.89 "HgN/A
5:00 AM79 °FPartly cloudy.7 mph89%29.89 "HgN/A
4:30 AM79 °FPartly cloudy.9 mph84%29.89 "HgN/A
4:00 AM79 °FLight rain. Passing clouds.10 mph89%29.89 "Hg4 mi
3:30 AM79 °FPartly cloudy.9 mph89%29.89 "HgN/A
3:00 AM79 °FMostly cloudy.8 mph89%29.89 "HgN/A
2:30 AM77 °FPassing clouds.3 mph94%29.92 "HgN/A
2:00 AM77 °FLight rain. Partly cloudy.3 mph94%29.92 "Hg4 mi
1:30 AM77 °FMostly cloudy.8 mph89%29.92 "HgN/A
1:00 AM81 °FPassing clouds.9 mph79%29.95 "HgN/A
12:30 AM81 °FPassing clouds.8 mph79%29.95 "HgN/A
12:00 AM79 °FMostly cloudy.6 mph84%29.95 "HgN/A
11:30 PM
Sat, Feb 6
81 °FPartly cloudy.9 mph79%29.98 "HgN/A
11:00 PM81 °FPartly cloudy.9 mph79%29.98 "HgN/A
10:30 PM81 °FPassing clouds.8 mph84%29.98 "HgN/A
10:00 PM81 °FPassing clouds.6 mph84%29.95 "HgN/A
9:00 PM79 °FPartly cloudy.3 mph84%29.95 "HgN/A
8:00 PM77 °FPassing clouds.2 mph89%29.92 "HgN/A
7:00 PM79 °FPassing clouds.6 mph89%29.92 "HgN/A
6:00 PM82 °FBroken clouds.8 mph74%29.89 "HgN/A
5:30 PM82 °FBroken clouds.13 mph74%29.89 "HgN/A
5:00 PM84 °FMostly cloudy.14 mph70%29.89 "HgN/A
4:30 PM84 °FMostly cloudy.15 mph70%29.89 "HgN/A
4:00 PM82 °FBroken clouds.15 mph74%29.92 "HgN/A
3:30 PM82 °FMostly cloudy.14 mph74%29.92 "HgN/A
3:00 PM82 °FPartly sunny.16 mph74%29.92 "HgN/A
Weather by CustomWeather, © 2016

See weather overviewHow to use our weather pages